Regional Weather Roundup
Issued by NWS Northern Indiana

Home | Current Version | Previous Version | Text Only | Print | Product List | Glossary Off
Versions: 1 2 3 4 5 6 7 8 9 10 11 12 13 14 15 16 17 18 19 20 21 22 23 24 25 26 27 28 29 30 31 32 33 34 35 36 37 38 39 40 41 42 43 44 45 46 47 48 49 50

000
ASUS43 KIWX 270010
RWRIWX

KIWX WEATHER ROUNDUP
NATIONAL WEATHER SERVICE NORTHERN INDIANA
800 PM EDT MON SEP 26 2016

NOTE: "FAIR" INDICATES FEW OR NO CLOUDS BELOW 12,000 FEET WITH NO
SIGNIFICANT WEATHER AND/OR OBSTRUCTIONS TO VISIBILITY.

* THESE STATIONS ARE NOT UNDER NWS QUALITY CONTROL. THEY ALSO MAY NOT
  REPORT WEATHER SUCH AS PRECIPITATION OR FOG.

INZ001>027-270100-
NORTHERN INDIANA

CITY           SKY/WX    TMP DP  RH WIND       PRES   REMARKS
GARY*          CLEAR     68  30  24 W23G39    29.95R
VALPARAISO     CLEAR     60  37  42 SW7       29.96R
6HR MIN TEMP:  60; 6HR MAX TEMP:  70;

MICHIGAN CITY* CLEAR     63  37  39 MISG      29.94S
LAPORTE*       CLEAR     62  35  36 W7        29.95R
6HR MIN TEMP:  62; 6HR MAX TEMP:  71;

KNOX*          CLEAR     64  -2   7 W10G16    29.95R
SOUTH BEND     CLEAR     57  41  55 W8        29.94R
6HR MIN TEMP:  57; 6HR MAX TEMP:  68;

GOSHEN         CLEAR     59  37  44 SW7       29.94R
6HR MIN TEMP:  58; 6HR MAX TEMP:  69; 6HR PCP: TRACE;

MONTICELLO*    CLEAR     64  26  23 W6        29.97S
6HR MIN TEMP:  64; 6HR MAX TEMP:  72;

LOGANSPORT*    CLEAR     59  37  44 SW6       29.98S
ROCHESTER*     CLEAR     64  36  34 W5        29.96S
WARSAW*        CLEAR     61  30  31 W9        29.95R
ANGOLA*          N/A     61  52  72 W3        29.94R
FORT WAYNE     CLEAR     62  38  40 SW7       29.96R
6HR MIN TEMP:  62; 6HR MAX TEMP:  71;

HUNTINGTON*    CLEAR     62  35  37 W7        29.96S
PERU/GRISSOM   CLEAR     61  38  41 W9        29.96R
6HR MIN TEMP:  61; 6HR MAX TEMP:  71;

MARION*        CLEAR     62  36  37 W8        29.99R
6HR MIN TEMP:  51; 6HR MAX TEMP:  89;


$$
INZ028>050-270100-
CENTRAL INDIANA

CITY           SKY/WX    TMP DP  RH WIND       PRES   REMARKS
LAFAYETTE      CLEAR     62  38  40 W5        29.99R
6HR MIN TEMP:  61; 6HR MAX TEMP:  71;

MUNCIE*        CLEAR     64  41  42 SW6       30.00R
6HR MIN TEMP:  64; 6HR MAX TEMP:  71;

INDIANAPOLIS   PTCLDY    61  42  49 SW8       30.01S
6HR MIN TEMP:  61; 6HR MAX TEMP:  71;


$$
MIZ043>046-050>051-056>058-064>065-071>073-077>080-270100-
SOUTHWEST LOWER MICHIGAN

CITY           SKY/WX    TMP DP  RH WIND       PRES   REMARKS
BATTLE CREEK   CLEAR     56  44  64 SW8       29.92S
6HR MIN TEMP:  56; 6HR MAX TEMP:  68;

BENTON HARBOR  PTCLDY    66  34  30 W21G31    29.91S
6HR MIN TEMP:  65; 6HR MAX TEMP:  69;

COLDWATER*     CLEAR     57  38  48 W6        29.93S
6HR MIN TEMP:  57; 6HR MAX TEMP:  69;

HILLSDALE*     CLEAR     57  37  47 W3        29.93R
HOLLAND        CLOUDY    64  38  38 W14G28    29.88F
6HR MIN TEMP:  64; 6HR MAX TEMP:  68;

GRAND RAPIDS   MOCLDY    58  43  57 SW10      29.87F
6HR MIN TEMP:  58; 6HR MAX TEMP:  67; 6HR PCP: TRACE;

KALAMAZOO      CLEAR     58  42  55 SW5       29.92S
6HR MIN TEMP:  58; 6HR MAX TEMP:  68;

STURGIS*       CLEAR     60  40  47 W5        29.93S
6HR MIN TEMP:  60; 6HR MAX TEMP:  69;

THREE RIVERS*  FAIR      61  40  46 CALM      29.93S
6HR MIN TEMP:  61; 6HR MAX TEMP:  68;


$$
OHZ001>008-015>018-024>025-270100-
NORTHWEST OHIO

CITY           SKY/WX    TMP DP  RH WIND       PRES   REMARKS
WAUSEON*       FAIR      59  41  51 W7        29.93S
DEFIANCE       CLEAR     62  39  42 SW3       29.95R
6HR MIN TEMP:  62; 6HR MAX TEMP:  70;

FINDLAY        CLEAR     59  43  55 SW7       29.95R
6HR MIN TEMP:  59; 6HR MAX TEMP:  69;

TOLEDO EXPRESS CLEAR     61  43  51 SW7       29.93R
6HR MIN TEMP:  61; 6HR MAX TEMP:  69;

TOLEDO METCALF CLEAR     62  45  53 SW7       29.94R
6HR MIN TEMP:  62; 6HR MAX TEMP:  69;

LIMA           CLEAR     61  44  53 SW7       29.97S
6HR MIN TEMP:  61; 6HR MAX TEMP:  68;


$$
AND FOR LAKE MICHIGAN COASTAL AND OPEN LAKE BUOY OBSERVATIONS

STATION/POSITION TEMP    WIND        PRES    VSBY  WAVE
                 AIR SEA DIR/SP/G                  HT/PER
                 (F)     (DEG/KT/KT) (MB)    (MI)  (FT/S)
CALUMET HARBOR    67     250/  8/ 16 1013.3R
MICHIGAN CITY     68     240/ 29/ 31   N/A
BURNS HARBOR      67     260/ 22     1014.2
SAINT JOSEPH      67     260/ 22/ 30 1013.9S
SOUTH LAKE BUOY   67 71  250/ 23/ 27 1010.9F         5/ 5
4 MI NW BRIDGMAN  67 64  280/ 21/ 29 1013.1          7/ 6
MICHIGAN CITY     68 67  290/ 21/ 29   N/A           6/ 5

$$
&&




USA.gov is the U.S. government's official web portal to all federal, state and local government web resources and services.